TimePST,TemperatureF,Dew PointF,Humidity,Sea Level PressureIn,VisibilityMPH,Wind Direction,Wind SpeedMPH,Gust SpeedMPH,PrecipitationIn,Events,Conditions,WindDirDegrees,DateUTC
12:54 AM,48.0,46.0,93,30.15,10.0,SSE,8.1,-,N/A,,Overcast,160,2013-11-05 08:54:00
1:54 AM,48.0,46.0,93,30.16,10.0,SSE,8.1,-,0.00,Rain,Light Rain,150,2013-11-05 09:54:00
2:54 AM,48.0,46.0,93,30.15,10.0,SSE,11.5,-,0.03,Rain,Light Rain,150,2013-11-05 10:54:00
3:54 AM,48.0,46.0,93,30.15,7.0,SSE,10.4,-,0.01,,Overcast,160,2013-11-05 11:54:00
4:54 AM,48.0,46.0,93,30.15,10.0,SSE,9.2,-,N/A,,Overcast,160,2013-11-05 12:54:00
5:54 AM,48.0,46.0,93,30.15,10.0,South,9.2,-,0.00,Rain,Light Rain,170,2013-11-05 13:54:00
6:54 AM,48.9,46.9,93,30.17,6.0,SSE,8.1,-,0.01,Rain,Light Rain,160,2013-11-05 14:54:00
7:54 AM,48.9,46.9,93,30.18,7.0,South,6.9,-,0.00,,Overcast,170,2013-11-05 15:54:00
8:54 AM,51.1,48.0,89,30.21,10.0,South,10.4,-,0.00,,Overcast,180,2013-11-05 16:54:00
9:32 AM,51.8,48.2,88,30.19,9.0,South,10.4,-,0.00,Rain,Light Rain,170,2013-11-05 17:32:00
9:54 AM,51.1,48.0,89,30.21,9.0,South,11.5,-,0.00,,Overcast,180,2013-11-05 17:54:00
10:25 AM,51.8,48.2,88,30.20,9.0,South,9.2,-,N/A,,Overcast,180,2013-11-05 18:25:00
10:54 AM,53.1,48.9,86,30.21,9.0,South,11.5,-,N/A,,Overcast,190,2013-11-05 18:54:00
11:54 AM,54.0,50.0,86,30.20,10.0,SSW,10.4,-,N/A,,Overcast,200,2013-11-05 19:54:00
12:19 PM,55.4,50.0,82,30.18,10.0,South,10.4,-,N/A,,Overcast,180,2013-11-05 20:19:00
12:54 PM,54.0,50.0,86,30.19,10.0,SSW,8.1,-,N/A,,Overcast,200,2013-11-05 20:54:00
1:24 PM,53.6,50.0,88,30.19,10.0,South,6.9,-,N/A,,Overcast,190,2013-11-05 21:24:00
1:54 PM,54.0,50.0,86,30.20,10.0,South,8.1,-,N/A,,Overcast,190,2013-11-05 21:54:00
2:54 PM,53.1,51.1,93,30.20,6.0,South,9.2,-,N/A,,Overcast,170,2013-11-05 22:54:00
3:54 PM,54.0,51.1,90,30.21,10.0,South,6.9,-,N/A,,Overcast,170,2013-11-05 23:54:00
4:54 PM,53.1,51.1,93,30.21,10.0,South,8.1,-,N/A,,Overcast,170,2013-11-06 00:54:00
5:54 PM,53.1,51.1,93,30.23,10.0,South,5.8,-,N/A,,Overcast,170,2013-11-06 01:54:00
6:50 PM,53.6,51.8,94,30.24,4.0,South,3.5,-,0.01,,Overcast,170,2013-11-06 02:50:00
6:54 PM,53.1,52.0,96,30.25,4.0,SSE,3.5,-,0.01,,Overcast,160,2013-11-06 02:54:00
7:54 PM,53.1,51.1,93,30.25,8.0,South,5.8,-,N/A,,Overcast,190,2013-11-06 03:54:00
8:39 PM,51.8,51.8,100,30.25,10.0,SSE,4.6,-,N/A,,Overcast,150,2013-11-06 04:39:00
8:54 PM,52.0,51.1,97,30.25,10.0,SSE,4.6,-,N/A,,Overcast,160,2013-11-06 04:54:00
9:54 PM,52.0,51.1,97,30.27,9.0,SSE,4.6,-,N/A,,Overcast,150,2013-11-06 05:54:00
10:54 PM,53.1,51.1,93,30.27,10.0,SSE,5.8,-,N/A,,Overcast,160,2013-11-06 06:54:00
11:54 PM,53.1,51.1,93,30.27,10.0,South,4.6,-,N/A,,Overcast,170,2013-11-06 07:54:00